TimeCDT,TemperatureF,Dew PointF,Humidity,Sea Level PressureIn,VisibilityMPH,Wind Direction,Wind SpeedMPH,Gust SpeedMPH,PrecipitationIn,Events,Conditions,WindDirDegrees,DateUTC
12:15 AM,50.0,35.6,58,29.88,10.0,Calm,Calm,-,N/A,,Clear,0,2012-10-03 05:15:00
12:35 AM,50.0,35.6,58,29.88,10.0,SSW,6.9,-,N/A,,Clear,210,2012-10-03 05:35:00
12:55 AM,51.8,35.6,54,29.88,10.0,South,6.9,-,N/A,,Clear,180,2012-10-03 05:55:00
1:15 AM,48.2,35.6,62,29.88,10.0,South,6.9,-,N/A,,Clear,170,2012-10-03 06:15:00
1:35 AM,48.2,35.6,62,29.88,10.0,South,6.9,-,N/A,,Clear,180,2012-10-03 06:35:00
1:55 AM,48.2,35.6,62,29.87,10.0,South,8.1,-,N/A,,Clear,170,2012-10-03 06:55:00
2:15 AM,46.4,35.6,66,29.87,10.0,South,6.9,-,N/A,,Clear,180,2012-10-03 07:15:00
2:35 AM,48.2,35.6,62,29.88,10.0,South,6.9,-,N/A,,Clear,190,2012-10-03 07:35:00
2:55 AM,48.2,35.6,62,29.88,10.0,SW,8.1,-,N/A,,Clear,220,2012-10-03 07:55:00
3:15 AM,48.2,35.6,62,29.88,10.0,SW,4.6,-,N/A,,Clear,220,2012-10-03 08:15:00
3:35 AM,48.2,35.6,62,29.87,10.0,SSW,5.8,-,N/A,,Clear,200,2012-10-03 08:35:00
3:55 AM,48.2,35.6,62,29.87,10.0,South,4.6,-,N/A,,Clear,190,2012-10-03 08:55:00
4:15 AM,48.2,35.6,62,29.87,10.0,South,4.6,-,N/A,,Clear,180,2012-10-03 09:15:00
4:35 AM,48.2,35.6,62,29.87,10.0,SE,4.6,-,N/A,,Clear,140,2012-10-03 09:35:00
4:55 AM,48.2,35.6,62,29.87,10.0,South,4.6,-,N/A,,Clear,170,2012-10-03 09:55:00
5:15 AM,46.4,35.6,66,29.87,10.0,South,5.8,-,N/A,,Clear,170,2012-10-03 10:15:00
5:35 AM,46.4,35.6,66,29.87,10.0,South,6.9,-,N/A,,Clear,180,2012-10-03 10:35:00
5:55 AM,48.2,37.4,66,29.87,10.0,SSW,4.6,-,N/A,,Clear,210,2012-10-03 10:55:00
6:15 AM,48.2,37.4,66,29.88,10.0,South,4.6,-,N/A,,Clear,190,2012-10-03 11:15:00
6:35 AM,48.2,37.4,66,29.88,10.0,South,4.6,-,N/A,,Clear,180,2012-10-03 11:35:00
6:55 AM,48.2,37.4,66,29.88,10.0,SSE,4.6,-,N/A,,Clear,160,2012-10-03 11:55:00
7:15 AM,46.4,37.4,71,29.87,10.0,SSE,6.9,-,N/A,,Clear,160,2012-10-03 12:15:00
7:35 AM,46.4,37.4,71,29.87,10.0,South,6.9,-,N/A,,Clear,170,2012-10-03 12:35:00
7:55 AM,44.6,37.4,76,29.87,10.0,SSE,5.8,-,N/A,,Clear,160,2012-10-03 12:55:00
8:15 AM,46.4,39.2,76,29.86,10.0,South,4.6,-,N/A,,Clear,170,2012-10-03 13:15:00
8:35 AM,48.2,39.2,71,29.86,10.0,SSE,3.5,-,N/A,,Clear,160,2012-10-03 13:35:00
8:55 AM,51.8,41.0,67,29.87,10.0,South,6.9,-,N/A,,Clear,190,2012-10-03 13:55:00
9:15 AM,55.4,42.8,63,29.86,10.0,SSW,10.4,-,N/A,,Clear,200,2012-10-03 14:15:00
9:35 AM,57.2,42.8,59,29.86,10.0,South,10.4,-,N/A,,Clear,190,2012-10-03 14:35:00
9:55 AM,60.8,42.8,52,29.86,10.0,SSW,13.8,19.6,N/A,,Clear,200,2012-10-03 14:55:00
10:15 AM,62.6,44.6,52,29.86,10.0,South,13.8,19.6,N/A,,Clear,190,2012-10-03 15:15:00
10:35 AM,64.4,44.6,49,29.86,10.0,SSW,15.0,-,N/A,,Clear,200,2012-10-03 15:35:00
10:55 AM,66.2,46.4,49,29.85,10.0,South,12.7,-,N/A,,Clear,190,2012-10-03 15:55:00
11:15 AM,69.8,46.4,43,29.85,10.0,South,13.8,-,N/A,,Clear,190,2012-10-03 16:15:00
11:35 AM,69.8,48.2,46,29.84,10.0,South,13.8,18.4,N/A,,Clear,180,2012-10-03 16:35:00
11:55 AM,71.6,48.2,43,29.84,10.0,South,15.0,19.6,N/A,,Clear,180,2012-10-03 16:55:00
12:15 PM,73.4,50.0,44,29.83,10.0,South,16.1,-,N/A,,Clear,180,2012-10-03 17:15:00
12:35 PM,75.2,50.0,41,29.82,10.0,South,17.3,-,N/A,,Clear,180,2012-10-03 17:35:00
12:55 PM,77.0,51.8,41,29.82,10.0,South,18.4,23.0,N/A,,Clear,180,2012-10-03 17:55:00
1:15 PM,78.8,51.8,39,29.81,5.0,South,18.4,23.0,N/A,,Partly Cloudy,190,2012-10-03 18:15:00
1:35 PM,78.8,53.6,42,29.80,10.0,SSW,16.1,21.9,N/A,,Partly Cloudy,200,2012-10-03 18:35:00
1:55 PM,80.6,51.8,37,29.79,10.0,South,16.1,-,N/A,,Clear,180,2012-10-03 18:55:00
2:15 PM,80.6,53.6,39,29.78,10.0,South,17.3,25.3,N/A,,Clear,190,2012-10-03 19:15:00
2:35 PM,80.6,51.8,37,29.77,10.0,South,19.6,26.5,N/A,,Clear,180,2012-10-03 19:35:00
2:55 PM,82.4,51.8,35,29.77,10.0,South,17.3,26.5,N/A,,Clear,190,2012-10-03 19:55:00
3:15 PM,82.4,51.8,35,29.77,10.0,South,18.4,-,N/A,,Clear,180,2012-10-03 20:15:00
3:35 PM,82.4,51.8,35,29.77,10.0,South,16.1,-,N/A,,Clear,190,2012-10-03 20:35:00
3:55 PM,82.4,51.8,35,29.77,10.0,South,17.3,24.2,N/A,,Clear,180,2012-10-03 20:55:00
4:15 PM,82.4,51.8,35,29.76,10.0,South,16.1,-,N/A,,Clear,190,2012-10-03 21:15:00
4:35 PM,84.2,51.8,33,29.76,10.0,South,16.1,-,N/A,,Clear,180,2012-10-03 21:35:00
4:55 PM,84.2,51.8,33,29.76,10.0,South,18.4,23.0,N/A,,Clear,190,2012-10-03 21:55:00
5:15 PM,84.2,51.8,33,29.76,10.0,South,17.3,-,N/A,,Clear,190,2012-10-03 22:15:00
5:55 PM,82.4,51.8,35,29.77,10.0,South,18.4,23.0,N/A,,Clear,180,2012-10-03 22:55:00
6:15 PM,82.4,51.8,35,29.77,10.0,South,18.4,25.3,N/A,,Clear,190,2012-10-03 23:15:00
6:35 PM,80.6,51.8,37,29.77,10.0,South,18.4,-,N/A,,Clear,190,2012-10-03 23:35:00
6:55 PM,78.8,50.0,36,29.77,10.0,South,15.0,-,N/A,,Clear,180,2012-10-03 23:55:00
7:15 PM,77.0,50.0,39,29.77,2.5,South,16.1,-,N/A,,Partly Cloudy,180,2012-10-04 00:15:00
7:35 PM,75.2,50.0,41,29.78,7.0,South,17.3,-,N/A,,Partly Cloudy,180,2012-10-04 00:35:00
7:55 PM,73.4,50.0,44,29.78,10.0,South,15.0,-,N/A,,Clear,180,2012-10-04 00:55:00
8:15 PM,73.4,50.0,44,29.79,10.0,South,15.0,-,N/A,,Clear,180,2012-10-04 01:15:00
8:35 PM,73.4,50.0,44,29.80,10.0,South,13.8,-,N/A,,Clear,180,2012-10-04 01:35:00
8:55 PM,71.6,50.0,46,29.80,10.0,South,13.8,-,N/A,,Clear,170,2012-10-04 01:55:00
9:15 PM,71.6,50.0,46,29.81,10.0,South,12.7,-,N/A,,Clear,170,2012-10-04 02:15:00
9:35 PM,69.8,50.0,49,29.83,10.0,South,11.5,-,N/A,,Clear,180,2012-10-04 02:35:00
9:55 PM,69.8,48.2,46,29.83,10.0,South,15.0,-,N/A,,Clear,180,2012-10-04 02:55:00
10:15 PM,68.0,48.2,49,29.83,10.0,South,16.1,20.7,N/A,,Clear,180,2012-10-04 03:15:00
10:35 PM,68.0,48.2,49,29.86,10.0,South,12.7,-,N/A,,Clear,190,2012-10-04 03:35:00
10:55 PM,68.0,48.2,49,29.92,10.0,WSW,11.5,24.2,N/A,,Clear,240,2012-10-04 03:55:00
11:15 PM,71.6,50.0,46,29.95,10.0,WNW,13.8,-,N/A,,Scattered Clouds,300,2012-10-04 04:15:00
11:35 PM,69.8,50.0,49,29.96,10.0,WNW,11.5,17.3,N/A,,Scattered Clouds,290,2012-10-04 04:35:00
11:55 PM,64.4,42.8,45,29.98,10.0,NNW,15.0,18.4,N/A,,Clear,330,2012-10-04 04:55:00